Prox-1 (44339 NORAD) Tracking and Keplerian Element Data

This shows tracking and keplerian element data for the satellite.

Feedback or suggestion? Click here.




ElementValue
Catalog44339
NameProx-1
Epoch Orbit1656
Epoch Day290.15480122
Epoch Year2019
RAAN208.7001
Inclination24.0002
Eccentricity0.0009787
Argument of Perigee3.3035
Mean Anonmoly356.7528
Mean Motion14.52692321
Decay Rate8.68E-06
L11 44339U 19036A 19290.15480122 .00000868 00000-0 15755-3 0 9994
L22 44339 24.0002 208.7001 0009787 3.3035 356.7528 14.52692321 16565

Live tracking and technical data element details for Prox-1 (NORAD 44339). Prox-1 can be tracked NOW for your location showing map with azimuth and elevation plus other details from your city location.

Track the satellite on the map from your city or location and see movement details for azimuth, elevation, latitude, longitude, range, height, and movement on the map or in text.







IsCatalogInMostPopularTable: catalog: 44339, numindb: 15
Update: records affected: 1



GetName: 44339 Prox-1

Hit Count: updated at: Wed, 23 Oct 2019 00:33:58 GMT